RH
61 54 50 60 64 65 55 51 42 40 40 41 40 40 39 40 38 39 39 41 41 46 55 56 49 41 46 41 38 27 22 20 21
87 64 56 50 56 61 68 63 56 60 57 52 52 50 48 47 46 43 42 46 55 62 75 67 58 54 52 46 41 30 26 23 24
100 78 70 60 59 57 57 64 68 72 70 73 73 68 60 50 50 49 53 65 64 68 84 77 66 59 56 51 48 38 28 26 26
74 75 75 78 87 64 56 55 58 65 75 88 93 86 94 85 81 78 80 77 74 100 99 92 83 69 66 55 54 45 32 32 29
73 77 87 83 78 94 100 86 64 61 77 79 76 81 94 100 94 95 97 87 100 99 100 100 91 73 69 67 60 48 40 35 36
92 81 95 95 94 83 76 91 99 97 93 98 88 72 75 82 93 86 82 82 82 82 96 100 97 92 89 82 76 59 48 39 42
100 99 89 100 100 99 90 97 100 97 100 100 100 81 86 80 77 76 79 74 73 80 89 100 100 100 100 100 95 76 55 46 40
95 100 100 99 100 99 100 100 100 100 100 100 98 82 82 82 77 76 73 70 67 59 58 72 97 100 100 100 100 94 71 58 46
59 63 78 95 100 100 92 90 100 100 100 100 100 83 84 80 76 71 72 68 66 59 58 61 73 94 100 100 100 100 94 76 83
29 34 47 55 74 94 94 95 97 100 97 95 100 88 83 82 77 76 78 74 75 68 63 55 50 71 100 100 100 100 100 99 100
27 30 35 36 35 51 59 74 85 95 92 100 100 94 86 88 81 72 66 71 68 71 80 75 63 71 84 100 100 100 100 100 100
27 32 32 36 32 34 40 48 46 61 84 92 89 84 80 86 85 77 76 77 78 75 71 85 82 68 100 100 100 100 100 100 100
35 33 34 39 45 46 42 38 52 61 64 67 75 53 57 72 74 71 69 77 72 70 71 70 68 73 70 99 100 100 93 91 100
40 40 41 46 60 59 59 56 52 56 60 53 43 39 38 42 45 52 54 51 41 45 55 57 56 78 92 95 100 100 100 100 100
41 40 38 44 47 54 55 62 63 64 65 62 54 52 43 38 33 35 36 37 38 37 33 29 31 37 34 37 95 100 100 100 100
39 38 36 35 34 36 40 43 47 51 57 62 63 60 51 40 32 30 32 33 33 27 24 23 25 30 35 66 56 95 100 100 100
39 37 36 34 33 31 31 34 36 38 40 40 41 30 23 25 23 26 26 22 21 20 22 37 45 78 93 85 66 56 52 99 100
38 36 35 35 33 31 30 28 28 29 32 32 28 19 18 20 20 21 20 20 20 25 37 78 81 96 100 93 94 89 87 65 100
38 36 35 34 33 31 29 26 25 24 23 21 19 18 20 19 20 22 21 21 21 24 31 53 82 100 100 100 100 98 77 97 100
39 38 37 35 34 32 29 27 25 22 20 19 18 17 19 20 20 21 23 22 23 25 27 31 35 35 64 69 58 89 98 89 96
Wind_Speed
17 16 14 10 9 10 12 10 10 10 9 9 9 11 11 11 11 11 12 15 17 22 25 23 25 29 32 34 36 35 35 34 36
19 18 19 16 14 11 11 12 12 10 10 10 9 10 10 9 9 11 12 14 17 22 22 22 25 31 31 34 35 34 34 35 35
25 23 22 20 19 16 15 13 13 12 11 10 10 10 10 10 10 12 14 16 18 21 21 22 24 28 29 34 32 33 33 33 34
30 29 28 25 24 21 19 19 16 15 14 13 13 13 13 14 13 14 16 18 20 21 22 21 22 25 26 33 30 31 32 33 33
31 31 29 29 27 25 24 24 22 21 20 19 19 18 18 17 18 18 19 20 20 20 23 21 22 24 23 25 26 29 31 34 33
35 34 33 33 32 30 29 26 26 24 24 23 23 21 21 22 22 21 23 23 23 24 23 23 24 22 22 21 23 29 30 32 34
39 39 39 39 38 36 33 32 31 28 27 27 28 26 25 25 25 25 25 25 25 24 24 23 25 26 26 22 24 28 29 29 33
47 45 44 44 43 41 37 36 35 34 33 32 34 32 30 29 27 27 28 28 27 26 25 27 25 25 26 26 27 28 31 29 32
53 51 50 49 48 47 44 43 40 38 37 37 37 36 34 34 33 31 30 29 29 29 28 27 26 25 25 26 29 26 30 30 29
56 56 53 53 53 52 51 50 48 44 41 40 41 41 39 39 38 36 35 34 31 31 31 30 28 27 25 25 25 28 29 28 31
54 55 54 55 54 54 55 54 54 50 47 44 43 46 45 43 42 40 38 38 36 33 34 33 31 28 26 26 24 25 29 26 27
53 53 52 53 54 55 54 54 53 55 55 50 47 49 48 46 45 43 43 41 40 38 38 36 34 31 27 29 30 27 25 27 28
54 54 53 53 53 53 54 55 54 52 52 51 49 50 49 49 48 46 45 45 43 42 42 39 38 35 30 26 26 31 30 29 27
54 55 55 54 54 53 53 53 53 54 52 50 48 48 50 50 50 50 49 48 46 44 44 43 40 37 33 31 26 25 30 30 28
55 56 57 57 56 56 54 54 52 53 54 54 52 51 51 50 50 51 49 48 48 45 45 43 41 39 38 36 33 33 28 28 29
58 59 58 59 59 58 56 55 53 53 53 55 55 54 54 53 51 50 50 48 46 45 44 40 40 40 38 34 34 36 38 33 31
62 61 60 60 60 60 59 59 57 56 55 53 53 53 50 49 50 49 47 45 44 43 40 38 36 35 37 35 33 34 37 37 36
63 63 61 62 62 63 63 61 60 59 56 55 54 53 50 49 48 48 48 45 43 41 39 38 37 38 39 38 39 39 36 35 38
66 66 65 65 64 64 66 63 61 60 60 57 55 52 52 48 49 48 49 46 44 42 41 42 42 44 44 44 43 44 44 41 38
69 70 67 66 66 65 66 66 63 60 61 60 56 54 54 53 52 51 51 49 47 47 47 48 49 50 51 52 51 49 48 48 47
Wind_Direction
236 238 231 219 218 226 231 231 235 235 233 239 250 260 261 270 286 296 307 314 320 323 323 323 329 340 343 351 353 359 360 1 2
244 248 244 240 238 229 227 232 238 245 251 252 255 260 264 275 290 294 297 309 312 319 319 316 323 336 341 347 351 358 359 360 360
248 251 252 250 246 241 234 229 230 237 246 257 262 266 274 277 281 287 294 304 310 313 317 311 321 330 337 343 348 351 357 359 357
246 252 254 251 249 247 241 239 233 230 236 246 260 270 276 279 280 284 290 303 313 315 311 307 319 327 332 337 345 346 355 357 357
245 247 251 253 252 255 258 250 244 243 247 250 255 259 264 273 279 286 291 297 310 318 318 305 319 326 326 328 340 342 348 355 356
242 245 248 249 250 252 255 259 257 252 249 253 257 259 262 266 272 278 285 290 296 304 312 315 311 317 318 324 329 336 343 350 350
241 244 246 248 250 248 249 253 257 256 254 255 259 260 264 269 273 278 282 288 295 297 304 311 314 317 310 314 317 327 336 343 350
247 248 249 248 251 254 249 250 251 253 255 257 262 267 267 267 271 277 282 287 292 295 297 298 305 312 317 308 313 318 329 333 342
249 249 249 249 249 251 254 255 250 249 251 257 262 265 267 270 272 275 281 286 290 291 292 292 294 300 313 313 310 315 323 329 331
249 249 249 250 250 251 253 255 257 258 257 259 263 265 266 270 273 276 279 283 285 287 291 290 291 292 298 311 315 314 319 322 329
250 251 249 250 250 252 254 254 255 257 258 259 262 266 267 270 272 275 279 282 283 284 287 289 290 289 291 294 305 320 325 314 324
250 249 248 249 250 249 249 251 254 254 255 257 259 264 266 267 270 275 278 279 280 281 283 282 286 285 282 290 296 298 315 319 318
250 249 249 248 248 247 249 250 250 252 254 255 258 261 263 265 267 268 270 273 276 278 280 282 281 286 282 279 292 296 294 296 312
247 249 248 247 247 245 246 248 249 250 251 253 254 257 261 263 265 267 269 272 274 275 277 276 279 277 277 276 269 281 291 298 300
244 245 247 246 246 245 245 246 249 250 251 251 252 254 259 262 265 266 267 269 271 273 273 275 275 276 278 277 267 265 270 292 291
244 244 244 248 248 248 247 246 245 248 249 251 254 255 257 260 261 262 264 265 268 269 271 273 275 274 275 275 274 266 270 270 283
242 245 247 247 251 250 249 249 248 247 248 251 253 255 255 255 258 260 261 262 263 266 268 270 271 272 272 273 277 277 269 269 271
245 245 246 248 248 250 250 247 248 249 249 250 252 251 251 252 254 256 258 260 262 264 265 265 267 270 271 274 276 281 278 273 267
247 247 246 246 248 249 252 252 250 249 250 250 250 250 250 251 254 256 258 259 260 262 264 264 265 266 267 270 272 274 279 276 276
248 248 247 247 247 248 250 252 252 251 251 250 249 247 249 252 255 256 259 261 263 263 264 264 264 266 266 269 271 271 273 276 278